Погода в Новоселье

Россия / Липецкая область     52°35′42″N   38°50′02″E
темп.,
°C
ветер,
м/с
пор.,
м/с
влажн.,
%
обл.,
%
осадки,
мм/ч
давл.,
гПа
погр.,
м
19 июня, сб
сб1900:00+14в37900 0.0 1026124
03:00+13в35932 0.0 102689
06:00+15в369132 0.0 1026160
09:00+21вюв34755 0.0 1026522
12:00+24вюв45656 0.0 10261304
15:00+24вюв44585 0.0 10251330
18:00+23вюв35700 0.0 1024527
21:00+18вюв33800 0.0 102433
20 июня, вс
вс2000:00+15вюв22840 0.0 102423
03:00+14вюв22890 0.0 102516
06:00+16в26880 0.0 1024153
09:00+20вюв45710 0.0 1024494
12:00+24вюв455833 0.0 1023994
15:00+25вюв455581 0.0 10221167
18:00+24вюв3673100 0.0 1021297
21:00+19вюв3481100 0.0 102248
21 июня, пн
пн2100:00+18в368687 0.0 1021110
03:00+17вюв359086 0.0 102185
06:00+18в4987100 0.0 1021210
09:00+23вюв597198 0.0 1021428
12:00+26вюв5758100 0.0 1020826
15:00+28юв465671 0.0 1020995
18:00+26вюв497174 0.0 1019346
21:00+22вюв498420 0.0 1020152
22 июня, вт
вт2200:00+20вюв398757 0.0 1020146
03:00+18вюв378746 0.0 1021115
06:00+19вюв498625 0.0 1021195
09:00+24вюв57715 0.0 1021400
12:00+28в575920 0.0 1020823
15:00+29в5660100 0.0 10201204
18:00+28в477028 0.0 1020327
21:00+23в478082 0.0 1021113
23 июня, ср
ср2300:00+21в368325 0.0 102199
03:00+20в478497 0.0 1021114
06:00+21в398615 0.0 1021179
09:00+26в577097 0.0 1021417
12:00+29вюв575314 0.0 1021857
15:00+31вюв465310 0.0 10201262
18:00+29вюв376734 0.0 1020271
21:00+24вюв467775 0.0 102191